Regional Weather Roundup
Issued by NWS Grand Forks, ND

Home | Current Version | Previous Version | Text Only | Print | Product List | Glossary On
Versions: 1 2 3 4 5 6 7 8 9 10 11 12 13 14 15 16 17 18 19 20 21 22 23 24 25 26 27 28 29 30 31 32 33 34 35 36 37 38 39 40 41 42 43 44 45 46 47 48 49 50
000
ASUS43 KFGF 271310
RWRFGF
PRAIRIE TO PINES  WEATHER ROUNDUP
NATIONAL WEATHER SERVICE EASTERN NORTH DAKOTA/GRAND FORKS ND
800 AM CDT MON APR 27 2015

 **SATELLITE DATA USED TO AUGMENT SKY COVER AT AUTOMATED STATIONS**
 *****  WEATHER ACROSS EASTERN NORTH DAKOTA  *****

CITY           SKY/WX    TMP DP  RH WIND       PRES   REMARKS
GRAND FORKS    PTSUNNY   39  32  76 W3        30.20R
GRAND FRKS AFB PTSUNNY   39  36  87 W3        30.20R
GRAND FRKS NWS   N/A     41 N/A N/A W3          N/A
DEVILS LAKE    CLOUDY    45  39  81 N9        30.21R
FARGO          MOSUNNY   46  27  47 S5        30.22R
WAHPETON ARPT  SUNNY     41  27  56 SE3       30.23R
$$

 ***** WEATHER ACROSS CENTRAL AND WESTERN NORTH DAKOTA  *****

CITY           SKY/WX    TMP DP  RH WIND       PRES   REMARKS
BISMARCK       CLOUDY    46  44  93 N9        30.22S FOG
MINOT          CLOUDY    41  38  89 NW7       30.26R
JAMESTOWN      MOSUNNY   41  36  82 CALM      30.20R
MINOT AFB      LGT RAIN  40  40 100 NW8       30.25R
GARRISON         N/A     41  39  93 N12       30.25R
WILLISTON      LGT RAIN  41  39  93 W6        30.30R
DICKINSON      CLOUDY    41  39  93 N9        30.24R FOG
HETTINGER      CLOUDY    41  39  93 NW14      30.24R
$$

 *****  OTHER AIRPORT OBSERVATIONS IN OUR AREA  *****

CITY           SKY/WX    TMP DP  RH WIND       PRES   REMARKS
WALHALLA       PTSUNNY   48  46  93 NW12      30.22R
GRAFTON AIRPOR FAIR      43  43 100 CALM      30.21R FOG
VALLEY CITY AR FAIR      41  32  70 CALM      30.21R
CANDO          PTSUNNY   43  39  87 N8        30.23R
CAVALIER APRT  CLOUDY    50  43  76 N10       30.21R
GWINNER        SUNNY     46  32  57 W8        30.23R
ROLLA          MIX PCPN  39  39 100 N9        30.24R
 ***** THE ABOVE OBSERVATIONS ARE NON NWS ARE NOT QUALITY
       CONTROLLED AND MAY MIS-REPORT RAIN FOR SNOW...
$$

  *****  WEATHER ACROSS NORTHERN MINNESOTA  *****

CITY           SKY/WX    TMP DP  RH WIND       PRES   REMARKS
FLAG ISLAND    MOSUNNY   43  27  52 S6        30.20S
WARROAD        MOSUNNY   41  30  65 CALM      30.21R
ROSEAU         MOSUNNY   46  28  49 S5        30.20R
HALLOCK        PTSUNNY   46  25  42 CALM      30.20R
THF RVR FALLS  MOSUNNY   46  25  42 CALM      30.21R
BAUDETTE       MOSUNNY   41  28  60 E3        30.21S
WASKISH        SUNNY     39  30  70 CALM      30.21S
CROOKSTON      PTSUNNY   46  27  46 S5        30.21R
$$
  *****  WEATHER ACROSS CENTRAL AND WEST MINNESOTA  *****

CITY           SKY/WX    TMP DP  RH WIND       PRES   REMARKS
FOSSTON        MOSUNNY   45  23  42 S5        30.21S
BEMIDJI        SUNNY     40  32  73 CALM      30.21S
PARK RAPIDS    SUNNY     40  31  70 CALM      30.21R
ELBOW LAKE     FAIR      45  28  51 SE5       30.22R
WADENA         SUNNY     39  30  70 CALM      30.21S
DETROIT LAKES  SUNNY     41  34  75 CALM      30.23R
MOORHEAD       MOSUNNY   45  23  42 S5        30.23R
FERGUS FALLS   SUNNY     43  30  61 SE3       30.24S
MORRIS MN      SUNNY     43  30  61 CALM      30.22R
STAPLES        SUNNY     36  30  80 CALM      30.22S
$$
  *****  WEATHER ELSEWHERE ACROSS MINNESOTA  *****

CITY           SKY/WX    TMP DP  RH WIND       PRES   REMARKS
DULUTH         SUNNY     43  29  57 NW6       30.21S
INTRNTL FALLS  SUNNY     42  32  67 SE3       30.22S
ELY            SUNNY     36  28  75 CALM      30.22S
CLOQUET        SUNNY     37  25  60 CALM      30.22R
WHEATON        SUNNY     37  28  70 SE5       30.25R
BRAINERD       SUNNY     38  26  62 CALM      30.22R
HIBBING        SUNNY     38  26  62 CALM      30.22R
ALEXANDRIA     SUNNY     44  35  70 CALM      30.23R
SAINT CLOUD    SUNNY     42  28  57 CALM      30.22S
MINNEAPOLIS    SUNNY     48  30  49 N3        30.22R
$$

  *****  WEATHER ACROSS SOUTH DAKOTA  *****

CITY           SKY/WX    TMP DP  RH WIND       PRES   REMARKS
SIOUX FALLS    MOSUNNY   42  32  67 NE5       30.23R
BROOKINGS      SUNNY     36  28  75 CALM      30.24R
WATERTOWN      SUNNY     40  26  57 CALM      30.23R
HURON          SUNNY     40  29  64 CALM      30.22R
SISSETON         N/A     42  30  62 CALM      30.22R
ABERDEEN       SUNNY     40  31  70 CALM      30.22S
MITCHELL       SUNNY     41  34  76 CALM      30.23R
PIERRE         MOSUNNY   40  35  83 CALM      30.21R
MOBRIDGE       PTSUNNY   45  39  79 CALM      30.19R
RAPID CITY     CLOUDY    41  38  89 N18G29    30.23R
$$

  *****  SOME WEATHER IN NEARBY STATES *****

CITY           SKY/WX    TMP DP  RH WIND       PRES   REMARKS
GLASGOW MT     CLOUDY    40  36  86 W3        30.30R
GREAT FALLS MT CLEAR     34  30  85 SW13      30.26R WCI  25
CHEYENNE WY    CLOUDY    34  32  92 N3        30.20R FOG
SCOTTSBLUFF NE CLOUDY    45  32  60 N5        30.22R
OMAHA NE       PTSUNNY   42  38  85 N7        30.20R
DES MOINES IA  MOSUNNY   48  33  56 N5        30.17R
DAVENPORT IA   SUNNY     43  33  68 NE9       30.16R
CHICAGO IL     SUNNY     44  31  60 N9        30.10R
EAU CLAIRE WI  SUNNY     43  27  53 NE5       30.20R
LA CROSSE WI   SUNNY     46  33  60 N5        30.19R
$$

  *****  SOME NATIONAL WEATHER *****

CITY           SKY/WX    TMP DP  RH WIND       PRES   REMARKS
LA GUARDIA NY  CLOUDY    50  32  50 NW7       29.68S
RALEIGH NC     MOSUNNY   52  47  83 NW5       29.81R
ATLANTA GA     PTSUNNY   56  48  74 N8        29.89R
NEW ORLEANS LA CLOUDY    75  70  84 NE16G22   29.74R
OKLAHOMA CITY  CLOUDY    55  51  86 E20G28    29.81F
ALBUQUERQUE NM PTCLDY    44  39  82 SW3       29.98R
SALT LAKE CITY PTCLDY    39  34  82 CALM      30.20R
LOS ANGELES CA PTCLDY    58  52  80 CALM      29.92S
BOISE ID       CLEAR     36  25  64 CALM      30.29R
SEATTLE WA     CLOUDY    52  49  89 SE8       30.26S
$$

*** WEATHER ACROSS MANITOBA...SASKATCHEWAN AND ONTARIO ***
                ***ONTARIO***

CITY           SKY/WX    TMP DP  RH WIND       PRES   REMARKS
GERALDTON      FOG       28  28 100 N6        30.21R VSB 3/4 WCI  22
THUNDER BAY    SUNNY     41  30  65 SW6       30.23S
SIOUX LOOKOUT  MOSUNNY   37  28  70 S3        30.24R
TORONTO        CLOUDY    39  34  81 N16       29.86R
BIG TROUT LK   SUNNY     32  27  80 VRB2      30.28R
PICKLE LAKE    MOSUNNY   34  25  69 CALM      30.25R
DRYDEN         SUNNY     45  28  53 VRB2      30.22F
KENORA         PTSUNNY   46  25  42 S8        30.21S
$$
                *** MANITOBA***

CITY           SKY/WX    TMP DP  RH WIND       PRES   REMARKS
BRANDON        CLOUDY    41  36  81 W13       30.25R
DAUPHIN        CLOUDY    41  34  75 W14       30.24R
ISLAND LAKE    CLOUDY    41  30  65 SE10      30.12S
PILOT MOUND    NOT AVBL
THE PAS        DRIZZLE   34  34 100 W12       30.18R
THOMPSON       CLOUDY    39  32  75 W6        30.05R
WINNIPEG       CLOUDY    46  39  76 NW10      30.22R
CHURCHILL      CLOUDY    27  25  93 E13       30.32F WCI  16
GILLAM         PTSUNNY   39  30  70 E6        30.11F
$$
                ***SASKATCHEWAN***

CITY           SKY/WX    TMP DP  RH WIND       PRES   REMARKS
ESTEVAN        LGT RAIN  39  37  93 W6        30.28R FOG
KINDERSLEY     PTCLDY    34  28  80 SE8       30.21R
LLOYDMINSTER   PTCLDY    34  27  75 S8        30.16S
PRINCE ALBERT  FOG       25  25 100 NE2       30.26R VSB 1/2
REGINA         PTSUNNY   30  30 100 NW2       30.29R FOG
YORKTON        CLOUDY    37  32  81 NW6       30.26R
N. BATTLEFORD  NOT AVBL
LA RONGE       FOG       30  30 100 NW3       30.25R VSB 1/4
SASKATOON      SUNNY     27  27 100 S5        30.27R WCI  21
SWIFT CURRENT  CLEAR     34  30  86 S9        30.24R
$$
NOTE: THESE ARE AUTOMATED STATIONS WITH LIMITED QUALITY CONTROL
      "FAIR" INDICATES FEW OR NO CLOUDS BELOW 12,000 FEET WITH NO
      SIGNIFICANT WEATHER AND/OR OBSTRUCTIONS TO VISIBILITY.
      SKY/WX - SKY CONDITION AND SIGNIFICANT WEATHER.
      TMP - AIR TEMPERATURE.    DP   - DEWPOINT TEMPERATURE.
      RH  - RELATIVE HUMIDITY.  PRES - PRESSURE.
      HX  - HEAT INDEX.         WCI  - WIND CHILL INDEX.
$


USA.gov is the U.S. government's official web portal to all federal, state and local government web resources and services.